Location: City of Moscow
(46.7306°N, 116.9989°W)
Time: 17:12:29
(UTC+00:00)

CUBESAT XI-V - Visible Passes

Search period start: 11 April 2026 00:00
Search period end: 21 April 2026 00:00
Orbit: 643 x 664 km, 98.3° (Epoch: 11 April)

Date Brightness Start Highest point End Pass type
(mag) Time Alt. Az. Time Alt. Az. Time Alt. Az.
11 Apr ? 09:51:27 11° ESE 09:54:44 24° ENE 09:58:17 10° N visible
11 Apr ? 11:29:16 26° SSW 11:31:15 41° W 11:35:29 10° NNW visible
12 Apr ? 10:19:01 17° SE 10:22:02 41° ENE 10:26:13 10° N visible
12 Apr ? 11:56:51 16° SW 11:58:55 22° W 12:02:26 10° NW visible
13 Apr ? 09:12:42 10° ENE 09:13:29 10° NE 09:14:17 10° NE visible
13 Apr ? 10:46:35 22° SSE 10:49:26 77° ENE 10:53:54 10° N visible
13 Apr ? 12:24:55 10° WSW 12:26:43 12° W 12:28:31 10° WNW visible
14 Apr ? 09:37:38 10° ESE 09:40:37 18° ENE 09:43:36 10° NNE visible
14 Apr ? 11:14:10 22° S 11:16:56 57° W 11:21:21 10° NNW visible
15 Apr ? 10:03:58 10° SE 10:07:51 30° ENE 10:11:45 10° N visible
15 Apr ? 11:41:45 16° SSW 11:44:33 31° W 11:48:31 10° NNW visible
16 Apr ? 10:31:30 14° SE 10:35:11 54° ENE 10:39:33 10° N visible
16 Apr ? 12:09:21 10° SW 12:12:16 17° W 12:15:12 10° NW visible
17 Apr ? 09:24:20 10° E 09:26:31 14° ENE 09:28:41 10° NNE visible
17 Apr ? 10:59:04 16° S 11:02:38 81° WSW 11:07:07 10° NNW visible
18 Apr ? 09:50:13 10° ESE 09:53:41 23° ENE 09:57:10 10° NNE visible
18 Apr ? 11:26:38 14° SSW 11:30:11 42° W 11:34:26 10° NNW visible
19 Apr ? 10:16:49 10° SE 10:20:57 39° ENE 10:25:07 10° N visible
19 Apr ? 11:54:16 10° SSW 11:57:50 23° W 12:01:25 10° NW visible
20 Apr ? 10:43:57 10° SSE 10:48:19 73° ENE 10:52:47 10° N visible
